Indonesia Terpercaya"/> Lidewapoker | Agen POKER online Indonesia Terpercaya

Jackpot

Texas Poker Multi Jackpot System

Kini Telah hadir Jackpot SUPER ROYAL FLUSH

Kini Telah hadir Jackpot 2000 (khusus table VIP keatas).

Ikutilah global jackpot yang tersedia di system kami, dengan system jackpot terbaru dan pertama di indonesia, anda dapat membeli jackpot dengan harga 100 rupiah saja dan menangkan hadiahnya hingga puluhan juta rupiah.

Jackpot bukanlah suatu keharusan untuk dibeli, namun kami memberikan suatu fitur tambahan untuk member tercinta dari www.lidewapoker.com.

Terdapat tiga pilihan harga jackpot yang bisa anda beli yaitu :100,500,1000 dan 2000(khusus table VIP Keatas) rupiah.

Hadiah dari Multi jackpot system www.lidewapoker.com

  1. full house x 10 harga jackpot yang anda beli.
      (contoh:anda membeli 1000 maka:1000 X10 = 10.000)
  2. four of kind x 250 harga jackpot yang anda beli
      (contoh:anda membeli 1000 maka:1000 X250 = 250.000)
  3. Straight flush x 1200
      (contoh:anda membeli 1000 maka:1000 X1200 = 1.200.000)
  4. Royal flush x 10000 harga jackpot yang anda beli
      (contoh:anda membeli 1000 maka:1000 X10000 = 10.000.000)
  5. SUPER ROYAL FLUSH x 30000 harga jackpot yang anda beli
      (contoh:anda membeli 1000 maka:1000 X30000 = 30.000.000)

Kondisi kartu

  1. full house adalah kondisi kartu dimana kartu anda dan kartu tengah dengan total 7 kartu bisa mendapatkan nilai 5 kartu dengan kombinasi 1 tris(three of kind) dan 1 pair, contoh 3 kartu 10 dan 2 kartu 5
  2. Four of kind adalah kondisi kartu dimana kartu anda dan kartu tengah dengan total 7 kartu bisa mendapatkan nilai 5 kartu dengan kombinasi 4 kartu yang sama jumlah dan 1 kartu apapun juga contoh anda mendapatkan 4 buah kartu angka 3 dan 1 kartu apapun.
  3. Staright flush adalah kondisi kartu dimana kartu anda dan kartu tengah dengan total 7 kartu bisa mendapatkan nilai 5 kartu dengan kombinasi seri / staright dengan kembang yang sama contoh : urutan kartu dari angka 5, 6, 7, 8 , 9 10 dengan kembang yg sama misalnya as hati
  4. Royal flush adalah kondisi kartu dimana kartu anda dan kartu tengah dengan total 7 kartu bisa mendapatkan nilai 5 kartu dengan kombinasi seri / staright dengan kembang yang sama tetapi kartu tersebut haruslah dimulai dari 10. contoh 10, Queen, Jack, King dan aces dengan kembang yang sama
  5. Super Royal flush adalah kondisi kartu dimana Kedua kartu anda digabung dengan 3 kartu pertama meja haruslah royal flush. contoh kartu anda 10,Queen kembang sama dan 3 kartu pertama meja adalah Jack, King dan aces dengan kembang yang sama

Demikian adalah penjelasan dari Multi Jackpot www.lidewapoker.com terima kasih dan selamat bermain salam hoki dari kami

Texas Poker Jackpot Winner

TOP SUPER ROYAL FLUSH
No.TanggalNamaPriceWin
124/05 07:50QQDKI2Super Royal flush15,000,000
224/05 05:06EXTRIM_Super Royal flush30,000,000
323/05 23:13A53MPI0N289Super Royal flush6,000,000
423/05 16:49MANTUNGGGSuper Royal flush6,000,000
523/05 12:44CRIZ05Super Royal flush6,000,000
TOP ROYAL FLUSH
No.TanggalNamaPriceWin
124/05 12:41WEHWEH003Royal flush10,000,000
224/05 12:20LUNDYIRoyal flush2,000,000
324/05 12:19NGIL86Royal flush1,000,000
424/05 12:16YABIDRoyal flush2,000,000
524/05 07:45DWBTIE0683Royal flush10,000,000
TOP STRAIGHT FLUSH
No.TanggalNamaPriceWin
124/05 12:47DAVID5112Straight Flush240,000
224/05 12:46KADAL1994Straight Flush240,000
324/05 12:46DPTTPAIMENTStraight Flush240,000
424/05 12:46MIYU1988Straight Flush1,200,000
524/05 12:44STRYDONStraight Flush240,000
LATEST JACKPOT
No.TanggalNamaPriceWin
124/05 12:48LUMPUHNDARFull House1,000
224/05 12:48GADING717Full House5,000
324/05 12:48ANAS47Full House10,000
424/05 12:48MEDI_04Full House2,000
524/05 12:48B104370Full House5,000
624/05 12:48RAJALAKI99Full House1,000
724/05 12:48BEH0K99Full House2,000
824/05 12:48PD4DKASIH12Full House2,000
924/05 12:48CAHWEDEFull House500
1024/05 12:48KAPTENJP9Full House10,000
1124/05 12:48FARISCAN88Full House1,000
1224/05 12:48FEKIR49Full House10,000
1324/05 12:48WIJAYA76Full House5,000
1424/05 12:48JALU54Full House5,000
1524/05 12:48MALIX121Full House10,000
1624/05 12:48T3NGW4ZA88Full House1,000
1724/05 12:48T3SB0SS99Full House1,000
1824/05 12:48GAD1SKUFull House5,000
1924/05 12:48C87069F8Full House2,000
2024/05 12:48RP5JTFull House2,000
2124/05 12:48ROMANKIUFull House10,000
2224/05 12:48R0Q4SHWWKQFull House2,000
2324/05 12:48B2312446Full House5,000
2424/05 12:48NEWPROFITFull House10,000
2524/05 12:48BA5E9B60Full House5,000
2624/05 12:48DWBTYA211Full House5,000
2724/05 12:48KXQV11V4DNFull House20,000
2824/05 12:48EA9FDD66Full House2,000
2924/05 12:48GOERDERFull House5,000
3024/05 12:48NAMTHAN123Full House20,000
3124/05 12:48CHIXNOFull House10,000
3224/05 12:48WNWN18Full House10,000
3324/05 12:48TECHISFull House5,000
3424/05 12:48PAK3LINFull House5,000
3524/05 12:48OCHETFull House2,000
3624/05 12:48KASIM13Full House1,000
3724/05 12:48AF8A6B36Full House2,000
3824/05 12:48M0VFull House1,000
3924/05 12:48OPELTENGUFull House1,000
4024/05 12:48SUWARNOJIMFull House1,000
4124/05 12:48LOTUSMANFull House5,000
4224/05 12:48BANGUN7Full House2,000
4324/05 12:48FUAD709Four Of A Kind125,000
4424/05 12:48ARDIR007Four Of A Kind50,000
4524/05 12:48HK4DTEMPRAMENFull House2,000
4624/05 12:48CODER9SFull House10,000
4724/05 12:48TINDAGEFull House10,000
4824/05 12:48RRQ88Four Of A Kind250,000
4924/05 12:47IDK896063Full House1,000
5024/05 12:47H451ANKUFull House5,000

Domino Multi Jackpot System

Ikutilah global jackpot yang tersedia di system kami, dengan system jackpot terbaru dan pertama di indonesia, anda dapat membeli jackpot dengan harga 100 rupiah saja dan menangkan hadiahnya hingga puluhan juta rupiah.

Jackpot bukanlah suatu keharusan untuk dibeli, namun kami memberikan suatu fitur tambahan untuk member tercinta dari www.lidewapoker.com.

Terdapat tiga pilihan harga jackpot yang bisa anda beli yaitu :100,500 dan 1000 rupiah.

Hadiah dari Multi jackpot system www.lidewapoker.com

  1. Murni Kecil x 50 harga jackpot yang anda beli.
      (contoh:anda membeli 1000 maka:1000 X 50 = 50.000)
  2. Murni Besar x 50 harga jackpot yang anda beli
      (contoh:anda membeli 1000 maka:1000 X 50 = 50.000)
  3. BALAK x 100 harga jackpot yang anda beli
      (contoh:anda membeli 1000 maka:1000 X 100 = 100.000)
  4. ENAM DEWA x 6666 harga jackpot yang anda beli
      (contoh:anda membeli 1000 maka:1000 X 6666 = 6.666.000)

Demikian adalah penjelasan dari Multi Jackpot www.lidewapoker.com terima kasih dan selamat bermain salam hoki dari kami

Domino Jackpot Winner

TOP ENAM DEWA
No.TanggalNamaPriceWin
124/05 01:20SPT7murni enam3,333,000
223/05 23:13LUCKYME88murni enam3,333,000
323/05 22:22NASIRSAJALmurni enam3,333,000
423/05 20:25J9FW8ZOWK8murni enam3,333,000
523/05 16:47SAHADAD99murni enam6,666,000
TOP BALAK
No.TanggalNamaPriceWin
124/05 12:43SOSI86balak100,000
224/05 12:42ABK888balak100,000
324/05 12:41MONYETL0Hbalak100,000
424/05 12:40BNDT6996balak50,000
524/05 12:38ERY250592balak100,000
LATEST JACKPOT
No.TanggalNamaPriceWin
124/05 12:48SU081289murni besar50,000
224/05 12:48DOEN9murni kecil25,000
324/05 12:47ROSE43murni kecil25,000
424/05 12:47HULK025murni besar50,000
524/05 12:47SYGKUNIlucky992,500
624/05 12:46DUDUNGPRETmurni besar50,000
724/05 12:46B1823656murni besar25,000
824/05 12:46DS1955murni besar50,000
924/05 12:45LAR12345murni besar50,000
1024/05 12:43SOSI86balak100,000
1124/05 12:43YKRJYUVRYUmurni besar5,000
1224/05 12:43ISERmurni kecil50,000
1324/05 12:43LUSMANlucky9910,000
1424/05 12:42ABK888balak100,000
1524/05 12:42JS5RQSSYZFmurni besar50,000
1624/05 12:41SONANG44murni kecil25,000
1724/05 12:41DEEEEA2murni kecil25,000
1824/05 12:41MONYETL0Hbalak100,000
1924/05 12:40BNDT6996balak50,000
2024/05 12:40C1TCICUITlucky9925,000
2124/05 12:40BOYGAUL10murni kecil25,000
2224/05 12:40SONANG44murni besar50,000
2324/05 12:40OSAKAVIPmurni kecil50,000
2424/05 12:39DWBTERKO82murni kecil25,000
2524/05 12:39MUVONmurni kecil50,000
2624/05 12:39SOSI86murni besar50,000
2724/05 12:39WINNER2200lucky992,500
2824/05 12:38DOMONG25murni kecil50,000
2924/05 12:38LASINO23murni besar50,000
3024/05 12:38ERY250592balak100,000
3124/05 12:38SRTLKAKWEmurni kecil5,000
3224/05 12:37KFMU42MIVYbalak100,000
3324/05 12:36KINK66balak100,000
3424/05 12:36LUSMANbalak100,000
3524/05 12:36UDUZ22murni besar25,000
3624/05 12:36ZAHRA533balak10,000
3724/05 12:35POKERKU23murni besar25,000
3824/05 12:34RHYNYO96murni kecil50,000
3924/05 12:34TOTOK_85balak100,000
4024/05 12:33SLMET799balak100,000
4124/05 12:32SARAV86murni kecil25,000
4224/05 12:32BOYGAUL10murni kecil25,000
4324/05 12:32PA_MUSSmurni besar5,000
4424/05 12:32PL1899murni kecil50,000
4524/05 12:30RIZKI135murni besar25,000
4624/05 12:30MIKSA66murni besar25,000
4724/05 12:29WATASHI_WAmurni kecil50,000
4824/05 12:29SANGADImurni kecil50,000
4924/05 12:29JACKBRATAmurni kecil50,000
5024/05 12:29PASIAK0987murni kecil25,000

Ceme Multi Jackpot System

Jackpot dilihat dari gabungan kartu pemain dengan kartu bandar. Bandar harus membeli jackpot sebanyak jumlah player yang sedang duduk. Sebagai contoh bila terdapat 3 pemain duduk bermain, dan bandar memutuskan untuk membeli jackpot Rp 1.000, maka pada periode tersebut bandar akan membeli jackpot sebanyak 3xRp1.000 = Rp3.000.

Jackpot bukanlah suatu keharusan untuk dibeli, namun kami memberikan suatu fitur tambahan untuk member tercinta dari www.lidewapoker.com.

Terdapat tiga pilihan harga jackpot yang bisa anda beli yaitu :100,500 dan 1000 rupiah.

Hadiah dari Multi jackpot system www.lidewapoker.com

  1. Murni Kecil x 50 harga jackpot yang anda beli.
      (contoh:anda membeli 1000 maka:1000 X 50 = 50.000)
  2. Murni Besar x 50 harga jackpot yang anda beli
      (contoh:anda membeli 1000 maka:1000 X 50 = 50.000)
  3. BALAK x 200 harga jackpot yang anda beli
      (contoh:anda membeli 1000 maka:1000 X 200 = 200.000)
  4. ENAM DEWA x 6666 harga jackpot yang anda beli
      (contoh:anda membeli 1000 maka:1000 X 6666 = 6.666.000)

Demikian adalah penjelasan dari Multi Jackpot www.lidewapoker.com terima kasih dan selamat bermain salam hoki dari kami

Ceme Jackpot Winner

TOP ENAM DEWA
No.TanggalNamaPriceWin
124/05 12:05SAKTI57murni enam6,666,000
224/05 12:05HENY227murni enam6,666,000
324/05 11:59CAAR80murni enam3,333,000
424/05 11:59SEGAONE03murni enam6,666,000
524/05 07:18BUDI029murni enam3,333,000
TOP BALAK
No.TanggalNamaPriceWin
124/05 12:48QIMOSbalak200,000
224/05 12:48EMPATRDbalak200,000
324/05 12:48REZKYGEAbalak100,000
424/05 12:48HANAPI45balak100,000
524/05 12:48HAMSLEK123balak20,000
LATEST JACKPOT
No.TanggalNamaPriceWin
124/05 12:48SAKTI57murni kecil50,000
224/05 12:48SAKTI57murni kecil50,000
324/05 12:48RADJAKODOKmurni besar25,000
424/05 12:48SAMSYI1murni besar50,000
524/05 12:48QAMAR007murni besar50,000
624/05 12:48AAAALACH70murni besar50,000
724/05 12:48QAMAR007murni besar50,000
824/05 12:48SARMIN74murni kecil50,000
924/05 12:48SURYASTAR1murni kecil50,000
1024/05 12:48QIMOSbalak200,000
1124/05 12:48EMPATRDbalak200,000
1224/05 12:48REZKYGEAbalak100,000
1324/05 12:48HANAPI45balak100,000
1424/05 12:48HAMSLEK123balak20,000
1524/05 12:47OCOY36balak200,000
1624/05 12:47ATENG8686murni besar5,000
1724/05 12:47HAPPY688murni kecil50,000
1824/05 12:47IDUTEAmurni kecil50,000
1924/05 12:47OZITAmurni kecil25,000
2024/05 12:47BUDGET88murni kecil5,000
2124/05 12:47DADI1679balak100,000
2224/05 12:47E61ECC02murni besar25,000
2324/05 12:47P4DALmurni besar5,000
2424/05 12:47DOUBLETWINmurni besar50,000
2524/05 12:47AD777777murni kecil50,000
2624/05 12:47PELAK0ORmurni besar25,000
2724/05 12:47SARMIN74balak200,000
2824/05 12:47DIXSbalak200,000
2924/05 12:47APACE29murni kecil50,000
3024/05 12:46SELAWAH9murni kecil50,000
3124/05 12:46RAI77murni kecil5,000
3224/05 12:46OZI899murni kecil50,000
3324/05 12:46CENTONXmurni kecil50,000
3424/05 12:46DETA0579murni kecil5,000
3524/05 12:46NATAAA96balak100,000
3624/05 12:46HERDIAWEYmurni besar50,000
3724/05 12:46A4601230murni besar50,000
3824/05 12:46RUSH2017murni besar50,000
3924/05 12:46HONUPOKPOKbalak200,000
4024/05 12:46MALAKAINIbalak200,000
4124/05 12:45DLA0ADEN83balak20,000
4224/05 12:45AFLOMAbalak200,000
4324/05 12:45CEVU21balak200,000
4424/05 12:45R4J4JOEDImurni kecil50,000
4524/05 12:45INSALLAHmurni kecil5,000
4624/05 12:45CHIPEKOmurni kecil50,000
4724/05 12:45ROYAL380murni besar50,000
4824/05 12:45KANTALL_95murni kecil5,000
4924/05 12:45YAUZA44murni kecil50,000
5024/05 12:45ULI71murni kecil5,000